[[[{"header":{"parameterUnit":"kt","parameterCategory":2,"dx":1,"dy":1,"la1":30.253999710083008,"la2":30.299108505249023,"lo1":-89.0895004272461,"lo2":-89.04439544677734,"nx":28,"ny":28,"refTime":"2022-09-26T21:00:00:Z","depth":0,"parameterNumber":1,"parameterNumberName":"U-component_of_WINDS"},"data":[-6.8767,-6.8848,-6.8832,-6.8917,-6.8917,-6.8971,-6.8985,-6.9002,-6.9011,-6.9073,-6.9106,-6.9097,-6.9099,-6.9133,-6.9167,-6.9162,-6.9178,-6.9218,-6.9205,-6.904,-6.9016,-6.8994,-6.8974,-6.9221,-6.9222,-6.9378,-6.938,-6.9381,-6.8648,-6.8649,-6.8689,-6.8718,-6.8751,-6.8703,-6.8721,-6.8752,-6.8802,-6.8813,-6.8844,-6.8898,-6.8937,-6.8924,-6.8959,-6.8995,-6.8974,-6.9006,-6.9003,-6.9004,-6.8827,-6.8806,-6.9022,-6.9022,-6.9022,-6.9022,-6.9022,-6.9022,-6.8427,-6.8476,-6.8483,-6.8526,-6.8536,-6.8555,-6.8598,-6.8586,-6.8624,-6.866,-6.8632,-6.8687,-6.8695,-6.8728,-6.8735,-6.8777,-6.8738,-6.8768,-6.8775,-6.8783,-6.8795,-6.8572,-6.8782,-6.8781,-6.878,-6.878,-6.8779,0,-6.826,-6.8243,-6.828,-6.8313,-6.8343,-6.8367,-6.8385,-6.8411,-6.8369,-6.8402,-6.8449,-6.8472,-6.8519,-6.856,-6.8588,-6.8589,-6.8541,-6.8534,-6.8554,-6.8569,-6.8579,-6.8575,-6.8288,-6.8528,-6.8526,-6.8524,-6.8523,-6.8522,-6.8036,-6.8095,-6.8094,-6.8123,-6.8129,-6.8175,-6.8198,-6.8156,-6.8183,-6.8199,-6.8244,-6.8284,-6.8315,-6.8391,-6.8375,-6.8409,-6.8387,-6.848,-6.8391,-6.8403,-6.8389,-6.8386,-6.8391,-6.8499,-6.8502,-6.8504,-6.8506,0,-6.7911,-6.7884,-6.797,-6.7963,-6.7963,-6.8027,-6.802,-6.8067,-6.805,-6.8111,-6.8123,-6.8096,-6.8142,-6.811,-6.8156,-6.8138,-6.8241,-6.8218,-6.8238,-6.8232,-6.8313,-6.8306,-6.8581,-6.8615,-6.8357,-6.8359,-6.8362,0,-6.771,-6.7788,-6.7743,-6.7794,-6.788,-6.7835,-6.7921,-6.7915,-6.792,-6.7968,-6.7909,-6.7955,-6.7907,-6.7949,-6.7922,-6.8001,-6.8009,-6.8,-6.7993,-6.8006,-6.8008,-6.802,-6.8008,-6.7972,-6.797,-6.7969,-6.7968,0,-6.7518,-6.7585,-6.7668,-6.7679,-6.7679,-6.7719,-6.7721,-6.7726,-6.775,-6.7775,-6.7789,-6.7822,-6.784,-6.7865,-6.7831,-6.7772,-6.7926,-6.7838,-6.7917,-6.7918,-6.7953,-6.7952,-6.8202,-6.7966,-6.7966,-6.7966,-6.7965,0,-6.7351,-6.7378,-6.7502,-6.7501,-6.752,-6.7574,-6.7603,-6.7642,-6.7652,-6.7639,-6.7658,-6.7615,-6.7681,-6.7595,-6.7685,-6.7618,-6.7639,-6.7636,-6.7641,-6.7645,-6.7551,-6.7697,-6.7938,-6.7963,-6.7649,-6.7646,-6.7644,0,-6.7139,-6.7256,-6.7219,-6.7337,-6.7387,-6.7317,-6.7376,-6.7387,-6.7375,-6.7414,-6.7399,-6.7445,-6.7375,-6.7384,-6.7433,-6.742,-6.7507,-6.7407,-6.7464,-6.7467,-6.7465,-6.7686,-6.773,-6.7889,-6.7609,-6.7613,-6.7616,0,-6.6971,-6.6971,-6.6995,-6.7006,-6.7013,-6.7054,-6.7122,-6.7157,-6.7186,-6.7204,-6.7259,-6.7322,-6.7272,-6.7288,-6.7256,-6.7308,-6.7447,-6.7247,-6.7246,-6.7285,-6.7589,-6.7631,-6.7658,-6.7413,-6.7417,-6.7421,-6.7588,0,-6.6726,-6.6781,-6.6844,-6.6869,-6.6896,-6.6968,-6.6934,-6.6966,-6.6933,-6.6918,-6.6999,-6.6998,-6.7034,-6.7055,-6.7023,-6.7152,-6.7126,-6.7071,-6.6986,-6.7132,-6.7186,-6.7208,-6.6908,-6.6905,-6.6903,-6.6901,0,0,-6.653,-6.6608,-6.6565,-6.6629,-6.6649,-6.6575,-6.6655,-6.6666,-6.6689,-6.6704,-6.6656,-6.6745,-6.6747,-6.6849,-6.6891,-6.6906,-6.6926,-6.6876,-6.7063,-6.7081,-6.7098,-6.7157,-6.718,-6.6897,-6.6896,-6.6895,-6.6895,0,-6.6434,-6.6439,-6.6519,-6.6527,-6.6539,-6.6519,-6.6539,-6.6537,-6.6531,-6.661,-6.6547,-6.6591,-6.6663,-6.6674,-6.6689,-6.6863,-6.6813,-6.6876,-6.6981,-6.7041,-6.7062,-6.7081,-6.7143,-6.7166,-6.6889,-6.689,-6.689,0,-6.6263,-6.6263,-6.6297,-6.6339,-6.6346,-6.6399,-6.6301,-6.6361,-6.6399,-6.6315,-6.6394,-6.6389,-6.64,-6.6501,-6.6544,-6.6502,-6.6713,-6.664,-6.6653,-6.6658,-6.6713,-6.6739,-6.6762,-6.6462,-6.6461,-6.646,0,0,-6.6185,-6.6235,-6.6221,-6.6316,-6.6325,-6.6296,-6.632,-6.6289,-6.6301,-6.6306,-6.6299,-6.6312,-6.6353,-6.6381,-6.6418,-6.6533,-6.6532,-6.6589,-6.6609,-6.6625,-6.6639,-6.6699,-6.6724,-6.6455,-6.6455,-6.6454,0,0,-6.6147,-6.6134,-6.6098,-6.6204,-6.6218,-6.6209,-6.6269,-6.6224,-6.6254,-6.6242,-6.6192,-6.6193,-6.6286,-6.6284,-6.622,-6.6387,-6.6304,-6.6318,-6.6385,-6.641,-6.643,-6.6429,-6.612,0,0,0,0,0,-6.6031,-6.6135,-6.6103,-6.6116,-6.6168,-6.6227,-6.6234,-6.6195,-6.6137,-6.6184,-6.6171,-6.6116,-6.6239,-6.6181,-6.6194,-6.6266,-6.6389,-6.6401,-6.6412,-6.6525,-6.6552,-6.6574,0,0,0,0,0,0,-6.6036,-6.6052,-6.61,-6.6097,-6.6108,-6.6223,-6.6116,-6.6108,-6.6131,-6.6119,-6.6121,-6.6116,-6.6084,-6.6171,-6.6184,-6.6253,-6.6115,-6.6394,-6.6404,-6.6412,-6.6534,-6.6556,-6.6574,0,0,0,0,0,-6.6039,-6.6052,-6.6146,-6.6095,-6.6105,-6.6078,-6.6112,-6.6104,-6.6121,-6.6101,-6.6095,-6.609,-6.6087,-6.6095,-6.6179,-6.6248,-6.6106,-6.6111,-6.64,-6.6408,-6.6415,-6.6545,0,0,0,0,0,0,-6.6042,-6.6045,-6.6147,-6.6148,-6.6053,-6.6071,-6.6072,-6.6102,-6.61,-6.6096,-6.6067,-6.6058,-6.609,-6.6096,-6.6102,-6.6249,-6.6099,-6.6104,-6.6107,-6.6406,-6.6412,-6.6418,0,0,0,0,0,0,-6.6038,-6.6047,-6.6147,-6.6096,-6.6091,-6.6064,-6.6066,-6.6131,-6.6101,-6.6066,-6.6059,-6.6063,-6.6081,-6.6097,-6.6102,-6.6205,-6.6094,-6.6098,-6.6101,-6.6103,-6.6411,-6.6416,0,0,0,0,0,0,-6.6041,-6.6049,-6.6096,-6.6092,-6.6088,-6.6101,-6.6121,-6.6176,-6.6058,-6.6068,-6.6047,-6.6041,-6.6084,-6.6087,-6.6102,-6.6204,-6.6205,-6.6094,-6.6097,-6.6099,-6.6101,0,0,0,0,0,0,0,-6.6044,-6.6002,-6.6138,-6.6089,-6.6084,-6.6162,-6.6162,-6.6163,-6.6057,-6.6053,-6.6048,-6.6044,-6.6067,-6.6072,-6.6077,-6.6203,0,0,-6.6093,-6.6095,0,0,0,0,0,0,0,0,-6.5997,-6.6001,-6.6138,-6.6138,-6.6139,-6.6162,-6.6162,-6.6163,-6.6056,-6.6053,-6.6049,-6.6045,-6.6068,-6.6072,-6.6077,0,0,0,0,0,0,0,0,0,0,0,0,0,0,0,-6.6138,-6.6138,0,-6.6162,-6.6162,-6.6163,-6.6056,-6.6053,-6.605,-6.6047,-6.6069,-6.6073,-6.6076,0,0,0,0,0,0,0,0,0,0,0,0,0,0,0,0,0,0,0,0,0,0,0,0,0,0,0,0,0,0,0,0,0,0,0,0,0,0,0,0,0,0,0,0,0,0,0,0,0,0,0,0,0,0,0,0,0,0,0,0,0,0,0,0,0,0,0,0,0]}],[{"header":{"parameterUnit":"kt","parameterCategory":2,"dx":1,"dy":1,"la1":30.253999710083008,"la2":30.299108505249023,"lo1":-89.0895004272461,"lo2":-89.04439544677734,"nx":28,"ny":28,"refTime":"2022-09-26T21:00:00:Z","depth":0,"parameterNumber":2,"parameterNumberName":"V-component_of_WINDS"},"data":[-13.319,-13.3279,-13.3268,-13.3363,-13.3368,-13.343,-13.3448,-13.347,-13.3483,-13.3554,-13.3592,-13.3587,-13.3593,-13.3634,-13.3673,-13.3669,-13.3687,-13.3729,-13.3717,-13.3543,-13.3518,-13.3494,-13.3473,-13.3733,-13.3733,-13.3898,-13.39,-13.3901,-13.3068,-13.3075,-13.3121,-13.3158,-13.3197,-13.315,-13.3174,-13.321,-13.3266,-13.3282,-13.3319,-13.3379,-13.3424,-13.3415,-13.3455,-13.3495,-13.3474,-13.3507,-13.3503,-13.3505,-13.3319,-13.3297,-13.3524,-13.3524,-13.3524,-13.3523,-13.3523,-13.3523,-13.2842,-13.2895,-13.291,-13.296,-13.2974,-13.2998,-13.3046,-13.3038,-13.3081,-13.3123,-13.3097,-13.3159,-13.3171,-13.3211,-13.322,-13.3267,-13.3226,-13.3257,-13.3265,-13.3274,-13.3286,-13.3051,-13.3272,-13.3272,-13.3271,-13.327,-13.327,0,-13.2672,-13.2658,-13.27,-13.2741,-13.2775,-13.2804,-13.2827,-13.2856,-13.2817,-13.2854,-13.2907,-13.2934,-13.2987,-13.3033,-13.3066,-13.3068,-13.302,-13.3013,-13.3034,-13.3048,-13.3058,-13.3055,-13.2753,-13.3006,-13.3004,-13.3002,-13.3001,-13.3,-13.2443,-13.2506,-13.2513,-13.2545,-13.2554,-13.2605,-13.2633,-13.2594,-13.2624,-13.2645,-13.2693,-13.2739,-13.2773,-13.2857,-13.2842,-13.2881,-13.2857,-13.2956,-13.2863,-13.2875,-13.286,-13.2857,-13.2863,-13.2975,-13.2978,-13.2981,-13.2983,0,-13.2315,-13.2292,-13.2385,-13.2384,-13.2386,-13.2454,-13.2452,-13.2502,-13.2487,-13.2553,-13.2566,-13.2542,-13.2593,-13.2562,-13.2612,-13.2595,-13.2705,-13.268,-13.2701,-13.2695,-13.2781,-13.2773,-13.3062,-13.3098,-13.2828,-13.283,-13.2832,0,-13.2111,-13.2194,-13.2155,-13.2209,-13.2301,-13.2258,-13.2349,-13.2345,-13.2354,-13.2406,-13.2346,-13.2396,-13.2348,-13.2393,-13.2367,-13.2451,-13.246,-13.2451,-13.2444,-13.2457,-13.2458,-13.2471,-13.2459,-13.2422,-13.242,-13.2419,-13.2418,0,-13.1914,-13.1989,-13.2078,-13.2091,-13.2096,-13.2139,-13.2143,-13.2151,-13.2177,-13.2206,-13.2222,-13.2258,-13.2277,-13.2305,-13.2272,-13.221,-13.2373,-13.228,-13.2364,-13.2365,-13.2401,-13.2399,-13.2664,-13.2416,-13.2416,-13.2415,-13.2415,0,-13.1744,-13.1776,-13.1907,-13.1911,-13.1932,-13.1989,-13.2022,-13.2064,-13.2077,-13.2064,-13.2086,-13.2041,-13.2111,-13.2022,-13.2118,-13.2047,-13.207,-13.2067,-13.2072,-13.2076,-13.1977,-13.2131,-13.2385,-13.2411,-13.2081,-13.2079,-13.2076,0,-13.1526,-13.1652,-13.1616,-13.1741,-13.1794,-13.1724,-13.1787,-13.1799,-13.1788,-13.183,-13.1816,-13.1864,-13.1791,-13.1801,-13.1852,-13.1839,-13.1932,-13.1826,-13.1886,-13.1889,-13.1887,-13.212,-13.2166,-13.2333,-13.204,-13.2044,-13.2047,0,-13.1353,-13.1359,-13.1384,-13.1397,-13.1407,-13.145,-13.1522,-13.156,-13.1591,-13.161,-13.1669,-13.1735,-13.1683,-13.17,-13.1666,-13.1721,-13.1868,-13.1657,-13.1656,-13.1697,-13.2019,-13.2062,-13.209,-13.1833,-13.1837,-13.1841,-13.2018,0,-13.1104,-13.1162,-13.1228,-13.1256,-13.1285,-13.136,-13.1327,-13.1361,-13.1327,-13.1312,-13.1396,-13.1396,-13.1433,-13.1455,-13.1421,-13.1557,-13.1529,-13.1472,-13.1382,-13.1535,-13.1593,-13.1616,-13.1299,-13.1296,-13.1294,-13.1292,0,0,-13.0901,-13.0984,-13.094,-13.1008,-13.1029,-13.0953,-13.1037,-13.1048,-13.1072,-13.1088,-13.1038,-13.113,-13.1132,-13.1238,-13.1283,-13.1297,-13.1318,-13.1265,-13.1462,-13.1482,-13.1499,-13.1562,-13.1586,-13.1288,-13.1287,-13.1286,-13.1285,0,-13.0803,-13.0809,-13.0892,-13.0902,-13.0915,-13.0895,-13.0915,-13.0914,-13.0907,-13.0989,-13.0924,-13.097,-13.1043,-13.1054,-13.1069,-13.1252,-13.1199,-13.1266,-13.1376,-13.1439,-13.1462,-13.1481,-13.1547,-13.1572,-13.1279,-13.128,-13.128,0,-13.0627,-13.0627,-13.0664,-13.0708,-13.0715,-13.077,-13.0668,-13.073,-13.077,-13.068,-13.0763,-13.0758,-13.0768,-13.0872,-13.0917,-13.0872,-13.1093,-13.1016,-13.103,-13.1034,-13.1093,-13.112,-13.1144,-13.0828,-13.0826,-13.0825,0,0,-13.0547,-13.06,-13.0585,-13.0684,-13.0693,-13.0663,-13.0688,-13.0656,-13.0667,-13.0672,-13.0663,-13.0676,-13.0718,-13.0747,-13.0784,-13.0903,-13.0902,-13.0961,-13.0983,-13.1,-13.1014,-13.1078,-13.1104,-13.0819,-13.0819,-13.0819,0,0,-13.0507,-13.0495,-13.0458,-13.0568,-13.0582,-13.0573,-13.0634,-13.0587,-13.0618,-13.0605,-13.0551,-13.0551,-13.0648,-13.0644,-13.0577,-13.0751,-13.0663,-13.0678,-13.075,-13.0776,-13.0797,-13.0796,-13.047,0,0,0,0,0,-13.0389,-13.0497,-13.0464,-13.0477,-13.053,-13.0592,-13.0598,-13.0557,-13.0496,-13.0545,-13.0531,-13.0472,-13.0597,-13.0536,-13.0549,-13.0625,-13.075,-13.0763,-13.0774,-13.0894,-13.0922,-13.0946,0,0,0,0,0,0,-13.0394,-13.041,-13.046,-13.0456,-13.0468,-13.0587,-13.0475,-13.0467,-13.0489,-13.0477,-13.0476,-13.0472,-13.0436,-13.0526,-13.0539,-13.0611,-13.0466,-13.0755,-13.0766,-13.0775,-13.0904,-13.0927,-13.0947,0,0,0,0,0,-13.0398,-13.0411,-13.0507,-13.0454,-13.0464,-13.0436,-13.0471,-13.0463,-13.0479,-13.0456,-13.045,-13.0446,-13.044,-13.0447,-13.0534,-13.0607,-13.0457,-13.0462,-13.0762,-13.077,-13.0777,-13.0915,0,0,0,0,0,0,-13.04,-13.0403,-13.0508,-13.0509,-13.041,-13.0428,-13.0429,-13.046,-13.0456,-13.0451,-13.0423,-13.0413,-13.0443,-13.0448,-13.0454,-13.0608,-13.045,-13.0455,-13.0458,-13.0768,-13.0775,-13.078,0,0,0,0,0,0,-13.0396,-13.0405,-13.0509,-13.0455,-13.045,-13.0421,-13.0422,-13.0489,-13.0457,-13.0422,-13.0414,-13.0419,-13.0433,-13.045,-13.0454,-13.056,-13.0444,-13.0449,-13.0452,-13.0454,-13.0773,-13.0778,0,0,0,0,0,0,-13.0399,-13.0407,-13.0455,-13.0451,-13.0446,-13.0459,-13.0479,-13.0535,-13.0413,-13.0423,-13.0401,-13.0395,-13.0436,-13.044,-13.0455,-13.0559,-13.0559,-13.0444,-13.0447,-13.045,-13.0451,0,0,0,0,0,0,0,-13.0402,-13.0359,-13.05,-13.0447,-13.0443,-13.0523,-13.0523,-13.0524,-13.0412,-13.0407,-13.0402,-13.0398,-13.0417,-13.0422,-13.0428,-13.0558,0,0,-13.0444,-13.0446,0,0,0,0,0,0,0,0,-13.0355,-13.0358,-13.05,-13.05,-13.0501,-13.0523,-13.0523,-13.0524,-13.0411,-13.0407,-13.0403,-13.0399,-13.0419,-13.0423,-13.0427,0,0,0,0,0,0,0,0,0,0,0,0,0,0,0,-13.05,-13.05,0,-13.0523,-13.0523,-13.0523,-13.0411,-13.0407,-13.0404,-13.0401,-13.042,-13.0423,-13.0427,0,0,0,0,0,0,0,0,0,0,0,0,0,0,0,0,0,0,0,0,0,0,0,0,0,0,0,0,0,0,0,0,0,0,0,0,0,0,0,0,0,0,0,0,0,0,0,0,0,0,0,0,0,0,0,0,0,0,0,0,0,0,0,0,0,0,0,0,0]}]]]